Weather History for KDUX - October, 2011

Change the Weather History Date:

Wednesday, October 5, 2011

  Actual Average (KBGD) Record (KBGD)
Temperature  
Mean Temperature 62 °F 64 °F  
Max Temperature 69 °F 77 °F 93 °F (2007)
Min Temperature 55 °F 52 °F 34 °F (1985)
Degree Days  
Heating Degree Days 3 4  
Month to date heating degree days 16  
Since 1 July heating degree days 44  
Cooling Degree Days 0 3  
Month to date cooling degree days 17  
Year to date cooling degree days 1802  
Growing Degree Days 12 (Base 50)    
Moisture  
Dew Point 44 °F    
Average Humidity 58    
Maximum Humidity 94    
Minimum Humidity 32    
Precipitation  
Precipitation 0.03 in 0.07 in 1.67 in (1994)
Month to date precipitation 0.39  
Year to date precipitation 18.78  
Snow  
Snow 0.00 in - T in (1954)
Month to date snowfall  
Since 1 July snowfall  
Since 1 September snowfall  
Snow Depth -    
Sea Level Pressure  
Sea Level Pressure 30.02 in    
Wind  
Wind Speed 13 mph (South)    
Max Wind Speed 26 mph    
Max Gust Speed 36 mph    
Visibility 10 miles    
Events Rain    
T = Trace of Precipitation, MM = Missing Value Source: NWS Daily Summary

Daily Weather History Graph

Daily Weather History Graph

Search for Another Location

Airport or City:

Trip Planner

Search our weather history database for the weather conditions in past years. The results will help you decide how hot, cold, wet, or windy it might be!

Date:

Astronomy

Oct. 05, 2011 Rise Set
Actual Time 7:46 AM CDT 7:26 PM CDT
Civil Twilight 7:20 AM CDT 7:51 PM CDT
Nautical Twilight 6:50 AM CDT 8:21 PM CDT
Astronomical Twilight 6:21 AM CDT 8:51 PM CDT
Moon 3:57 PM CDT (10/5) 1:46 AM CDT (10/5)
Length of Visible Light 12h 31m
Length of Day
11h 40m
Waxing Gibbous, 66% of the Moon is Illuminated
Oct 5
Waxing Gibbous
Oct 11
Full
Oct 19
Last Quarter
Oct 26
New
Nov 2
First Quarter

Hourly Weather History & Observations

Time (CDT) Temp. Dew Point Humidity Pressure Visibility Wind Dir Wind Speed Gust Speed Precip Events Conditions
12:15 AM 60.8 °F 32.0 °F 34% 30.11 in 10.0 mi SSW 8.1 mph - N/A   Scattered Clouds
12:35 AM 60.8 °F 32.0 °F 34% 30.11 in 10.0 mi South 9.2 mph - N/A   Scattered Clouds
12:55 AM 60.8 °F 32.0 °F 34% 30.11 in 10.0 mi SSE 8.1 mph - N/A   Scattered Clouds
1:15 AM 60.8 °F 32.0 °F 34% 30.11 in 10.0 mi SSE 9.2 mph - N/A   Scattered Clouds
1:35 AM 62.6 °F 32.0 °F 32% 30.10 in 10.0 mi SSE 9.2 mph - N/A   Mostly Cloudy
2:15 AM 62.6 °F 32.0 °F 32% 30.09 in 10.0 mi SSE 10.4 mph - N/A   Scattered Clouds
2:35 AM 62.6 °F 32.0 °F 32% 30.09 in 10.0 mi SSE 10.4 mph - N/A   Clear
2:55 AM 60.8 °F 32.0 °F 34% 30.10 in 10.0 mi SSW 6.9 mph - N/A   Clear
3:15 AM 57.2 °F 32.0 °F 38% 30.09 in 10.0 mi South 9.2 mph - N/A   Clear
3:35 AM 59.0 °F 32.0 °F 36% 30.07 in 10.0 mi South 9.2 mph - N/A   Scattered Clouds
3:55 AM 59.0 °F 32.0 °F 36% 30.07 in 10.0 mi South 10.4 mph - N/A   Mostly Cloudy
4:15 AM 59.0 °F 33.8 °F 39% 30.06 in 10.0 mi South 11.5 mph - N/A   Scattered Clouds
4:55 AM 59.0 °F 33.8 °F 39% 30.04 in 10.0 mi South 9.2 mph - N/A   Clear
5:15 AM 59.0 °F 33.8 °F 39% 30.03 in 10.0 mi SSE 8.1 mph - N/A   Clear
5:35 AM 59.0 °F 33.8 °F 39% 30.03 in 10.0 mi SSE 9.2 mph - N/A   Clear
5:55 AM 59.0 °F 33.8 °F 39% 30.04 in 10.0 mi South 9.2 mph - N/A   Clear
6:35 AM 59.0 °F 32.0 °F 36% 30.04 in 10.0 mi South 10.4 mph - N/A   Scattered Clouds
6:55 AM 55.4 °F 32.0 °F 41% 30.05 in 10.0 mi South 9.2 mph - N/A   Scattered Clouds
7:15 AM 55.4 °F 32.0 °F 41% 30.05 in 10.0 mi South 10.4 mph - N/A   Scattered Clouds
7:35 AM 57.2 °F 33.8 °F 41% 30.06 in 10.0 mi SSW 13.8 mph - N/A   Clear
8:15 AM 57.2 °F 42.8 °F 59% 30.04 in 10.0 mi SSE 10.4 mph - N/A   Clear
8:35 AM 57.2 °F 42.8 °F 59% 30.03 in 10.0 mi South 10.4 mph - N/A   Clear
8:55 AM 59.0 °F 44.6 °F 59% 30.03 in 10.0 mi SSE 12.7 mph - N/A   Scattered Clouds
9:15 AM 59.0 °F 44.6 °F 59% 30.04 in 10.0 mi South 12.7 mph - N/A   Mostly Cloudy
9:35 AM 59.0 °F 42.8 °F 55% 30.06 in 10.0 mi South 12.7 mph - N/A   Overcast
9:55 AM 60.8 °F 42.8 °F 52% 30.07 in 10.0 mi SSW 13.8 mph 19.6 mph N/A   Mostly Cloudy
10:15 AM 62.6 °F 50.0 °F 63% 30.08 in 10.0 mi SW 23.0 mph 28.8 mph N/A   Overcast
10:35 AM 60.8 °F 50.0 °F 68% 30.09 in 10.0 mi SW 26.5 mph 34.5 mph N/A   Overcast
10:55 AM 55.4 °F 51.8 °F 88% 30.08 in 7.0 mi SSW 23.0 mph 32.2 mph N/A Rain Light Rain
11:15 AM 55.4 °F 51.8 °F 88% 30.07 in 7.0 mi SSW 21.9 mph 29.9 mph 0.01 in Rain Rain
11:35 AM 55.4 °F 53.6 °F 94% 30.05 in 10.0 mi South 12.7 mph - 0.03 in Rain Light Rain
11:55 AM 55.4 °F 53.6 °F 94% 30.00 in 10.0 mi SE 8.1 mph 12.7 mph 0.03 in   Overcast
12:15 PM 59.0 °F 53.6 °F 82% 30.02 in 10.0 mi SSE 17.3 mph 24.2 mph N/A   Scattered Clouds
12:35 PM 59.0 °F 53.6 °F 82% 30.01 in 10.0 mi SSE 17.3 mph 23.0 mph N/A   Clear
12:55 PM 59.0 °F 53.6 °F 82% 30.00 in 10.0 mi SSE 15.0 mph - N/A   Scattered Clouds
1:15 PM 59.0 °F 53.6 °F 82% 29.98 in 10.0 mi SSE 16.1 mph 21.9 mph N/A   Scattered Clouds
1:35 PM 59.0 °F 53.6 °F 82% 29.98 in 10.0 mi South 13.8 mph - N/A   Clear
1:55 PM 62.6 °F 55.4 °F 77% 29.97 in 10.0 mi South 20.7 mph - N/A   Clear
2:35 PM 68.0 °F 51.8 °F 56% 29.96 in 10.0 mi South 24.2 mph 29.9 mph N/A   Clear
2:55 PM 68.0 °F 53.6 °F 60% 29.95 in 10.0 mi South 26.5 mph 33.4 mph N/A   Clear
3:15 PM 68.0 °F 53.6 °F 60% 29.94 in 10.0 mi South 26.5 mph 32.2 mph N/A   Clear
3:35 PM 69.8 °F 53.6 °F 56% 29.95 in 10.0 mi South 25.3 mph 33.4 mph N/A   Clear
3:55 PM 66.2 °F 53.6 °F 64% 29.95 in 10.0 mi South 26.5 mph 35.7 mph N/A   Scattered Clouds
4:15 PM 64.4 °F 53.6 °F 68% 29.96 in 10.0 mi South 21.9 mph 28.8 mph N/A   Mostly Cloudy
4:55 PM 64.4 °F 53.6 °F 68% 29.96 in 10.0 mi South 19.6 mph 26.5 mph N/A   Overcast
5:15 PM 62.6 °F 53.6 °F 72% 29.96 in 10.0 mi SSE 19.6 mph 25.3 mph N/A   Overcast
5:35 PM 64.4 °F 55.4 °F 73% 29.95 in 10.0 mi SSE 19.6 mph - N/A   Overcast
5:55 PM 64.4 °F 55.4 °F 73% 29.94 in 10.0 mi SSE 18.4 mph 25.3 mph N/A   Mostly Cloudy
6:15 PM 62.6 °F 55.4 °F 77% 29.93 in 10.0 mi SSE 19.6 mph 24.2 mph N/A   Overcast
6:35 PM 62.6 °F 55.4 °F 77% 29.93 in 10.0 mi SSE 19.6 mph 26.5 mph N/A   Overcast
6:55 PM 62.6 °F 55.4 °F 77% 29.92 in 10.0 mi SE 20.7 mph 25.3 mph N/A   Mostly Cloudy
7:15 PM 62.6 °F 55.4 °F 77% 29.93 in 10.0 mi SE 19.6 mph 24.2 mph N/A   Mostly Cloudy
7:35 PM 60.8 °F 55.4 °F 82% 29.93 in 10.0 mi SSE 21.9 mph 27.6 mph N/A   Overcast
7:55 PM 60.8 °F 55.4 °F 82% 29.93 in 10.0 mi SSE 17.3 mph 24.2 mph N/A   Overcast
8:15 PM 60.8 °F 55.4 °F 82% 29.93 in 10.0 mi SSE 16.1 mph 21.9 mph N/A   Overcast
8:35 PM 59.0 °F 55.4 °F 88% 29.93 in 10.0 mi SSE 15.0 mph - N/A   Overcast
9:15 PM 59.0 °F 55.4 °F 88% 29.94 in 10.0 mi SE 19.6 mph 24.2 mph N/A   Overcast
9:35 PM 60.8 °F 57.2 °F 88% 29.93 in 10.0 mi SE 19.6 mph 25.3 mph N/A   Overcast
9:55 PM 60.8 °F 57.2 °F 88% 29.93 in 10.0 mi SE 21.9 mph 26.5 mph N/A   Overcast
10:15 PM 60.8 °F 57.2 °F 88% 29.93 in 10.0 mi SE 18.4 mph - N/A   Overcast
10:35 PM 60.8 °F 57.2 °F 88% 29.93 in 10.0 mi SE 18.4 mph 24.2 mph N/A   Overcast
10:55 PM 60.8 °F 57.2 °F 88% 29.92 in 10.0 mi SE 20.7 mph 25.3 mph N/A   Overcast
11:15 PM 60.8 °F 57.2 °F 88% 29.92 in 10.0 mi SSE 15.0 mph 23.0 mph N/A   Overcast
11:35 PM 59.0 °F 55.4 °F 88% 29.91 in 10.0 mi SSE 16.1 mph - N/A   Mostly Cloudy
11:55 PM 59.0 °F 55.4 °F 88% 29.91 in 10.0 mi SSE 15.0 mph 23.0 mph N/A   Mostly Cloudy